FW7887 Weather Reports


Display with metric or nautical units.
time (UTC)temp
F
wind
direction
speed
MPH
gust
MPH
rain 1hr
in
rain 24hr
in
rain mn
in
humidity
%
barometer
mb
20260507025453 66 91 0.0 0.0 0.00 0.00 0.00 63 1015.5
20260507024951 67 92 0.0 0.0 0.00 0.00 0.00 63 1015.3
20260507024448 67 94 1.0 1.0 0.00 0.00 0.00 62 1015.4
20260507023944 67 97 0.0 0.0 0.00 0.00 0.00 62 1015.2
20260507023441 68 92 0.0 0.0 0.00 0.00 0.00 61 1015.0
20260507022938 68 92 0.0 0.0 0.00 0.00 0.00 60 1015.0
20260507022435 69 101 0.0 1.0 0.00 0.00 0.00 59 1014.8
20260507021930 70 39 2.0 3.0 0.00 0.00 0.00 57 1014.9
20260507021426 71 91 0.0 1.0 0.00 0.00 0.00 56 1014.8
20260507020924 71 92 0.0 0.0 0.00 0.00 0.00 57 1015.0
20260507020420 72 83 1.0 2.0 0.00 0.00 0.00 55 1014.8
20260507015917 72 86 1.0 1.0 0.00 0.00 0.00 55 1014.6
20260507015416 72 12 3.0 3.0 0.00 0.00 0.00 55 1014.7
20260507014912 71 38 4.0 6.0 0.00 0.00 0.00 55 1014.7
20260507014409 73 330 3.0 3.0 0.00 0.00 0.00 54 1014.6
20260507013905 73 101 1.0 2.0 0.00 0.00 0.00 54 1014.6
20260507013402 73 331 3.0 3.0 0.00 0.00 0.00 53 1014.5
20260507012900 73 25 1.0 2.0 0.00 0.00 0.00 53 1014.9
20260507012355 74 74 3.0 3.0 0.00 0.00 0.00 53 1014.5
20260507011853 73 98 1.0 1.0 0.00 0.00 0.00 54 1014.7
20260507011349 74 241 4.0 6.0 0.00 0.00 0.00 54 1014.6
20260507010843 76 137 2.0 2.0 0.00 0.00 0.00 53 1014.5
20260507010339 75 85 2.0 2.0 0.00 0.00 0.00 52 1014.2
20260507005837 75 94 2.0 2.0 0.00 0.00 0.00 52 1014.6
20260507005333 75 52 2.0 2.0 0.00 0.00 0.00 53 1014.5
20260507004830 75 90 1.0 1.0 0.00 0.00 0.00 52 1014.8
20260507004327 75 90 2.0 5.0 0.00 0.00 0.00 52 1014.7
20260507003824 75 38 3.0 5.0 0.00 0.00 0.00 51 1014.5
20260507003320 76 76 2.0 5.0 0.00 0.00 0.00 51 1014.4
20260507002815 77 112 3.0 3.0 0.00 0.00 0.00 50 1014.6
20260507002311 76 298 2.0 2.0 0.00 0.00 0.00 51 1014.4
20260507001809 76 124 1.0 1.0 0.00 0.00 0.00 51 1014.4
20260507001306 76 88 2.0 2.0 0.00 0.00 0.00 51 1014.1
20260507000802 77 59 2.0 2.0 0.00 0.00 0.00 50 1014.1
20260507000259 78 18 2.0 2.0 0.00 0.00 0.00 48 1014.3
20260506235755 77 38 1.0 2.0 0.00 0.00 0.00 49 1014.3
20260506235250 77 302 3.0 5.0 0.00 0.00 0.00 48 1014.3
20260506234748 77 74 2.0 3.0 0.00 0.00 0.00 49 1014.2
20260506234245 77 1 3.0 6.0 0.00 0.00 0.00 48 1014.3
20260506233742 77 81 2.0 3.0 0.00 0.00 0.00 49 1014.2
20260506233239 80 124 2.0 3.0 0.00 0.00 0.00 46 1014.5
20260506232735 80 88 0.0 1.0 0.00 0.00 0.00 47 1014.3
20260506232230 79 111 1.0 2.0 0.00 0.00 0.00 46 1014.3
20260506231728 80 80 1.0 1.0 0.00 0.00 0.00 46 1014.3
20260506231226 80 88 1.0 2.0 0.00 0.00 0.00 47 1014.5
20260506230722 80 139 0.0 0.0 0.00 0.00 0.00 47 1014.3
20260506230219 80 73 1.0 1.0 0.00 0.00 0.00 47 1014.4
20260506225715 79 84 1.0 1.0 0.00 0.00 0.00 47 1014.6
20260506225212 79 158 2.0 2.0 0.00 0.00 0.00 45 1014.5
20260506224709 79 87 0.0 1.0 0.00 0.00 0.00 48 1014.5
20260506224206 79 97 1.0 1.0 0.00 0.00 0.00 47 1014.6
20260506223702 79 83 2.0 3.0 0.00 0.00 0.00 47 1014.7
20260506223158 79 86 0.0 1.0 0.00 0.00 0.00 48 1014.6
20260506222656 80 208 3.0 5.0 0.00 0.00 0.00 46 1015.0
20260506222151 80 77 2.0 2.0 0.00 0.00 0.00 46 1014.6
20260506221649 80 94 2.0 2.0 0.00 0.00 0.00 47 1014.6
20260506221147 79 176 0.0 1.0 0.00 0.00 0.00 47 1015.0
20260506220643 79 99 1.0 2.0 0.00 0.00 0.00 47 1014.8
20260506220138 81 128 2.0 3.0 0.00 0.00 0.00 44 1015.0
20260506215636 80 117 2.0 5.0 0.00 0.00 0.00 44 1014.9
20260506215131 80 92 0.0 0.0 0.00 0.00 0.00 46 1015.1
20260506214628 79 89 1.0 1.0 0.00 0.00 0.00 44 1015.2
20260506214126 79 101 1.0 1.0 0.00 0.00 0.00 47 1015.3
20260506213624 79 115 1.0 2.0 0.00 0.00 0.00 46 1015.4
20260506213120 79 98 1.0 1.0 0.00 0.00 0.00 46 1015.4
20260506212618 80 85 1.0 2.0 0.00 0.00 0.00 46 1015.6
20260506212112 80 87 0.0 0.0 0.00 0.00 0.00 45 1015.5
20260506211608 80 9 1.0 2.0 0.00 0.00 0.00 42 1015.7
20260506211106 79 96 1.0 2.0 0.00 0.00 0.00 42 1015.5
20260506210602 79 86 0.0 1.0 0.00 0.00 0.00 43 1015.6
20260506210059 78 70 2.0 2.0 0.00 0.00 0.00 46 1015.6
20260506205556 78 85 3.0 3.0 0.00 0.00 0.00 44 1015.7
20260506205050 77 89 0.0 0.0 0.00 0.00 0.00 45 1015.7
20260506204549 78 136 2.0 3.0 0.00 0.00 0.00 44 1015.6
20260506204046 77 92 0.0 1.0 0.00 0.00 0.00 47 1015.9
20260506203544 76 86 2.0 2.0 0.00 0.00 0.00 46 1015.8
20260506203040 75 106 0.0 1.0 0.00 0.00 0.00 46 1015.7
20260506202538 76 219 0.0 1.0 0.00 0.00 0.00 45 1016.1
20260506202034 75 79 1.0 1.0 0.00 0.00 0.00 46 1016.2
20260506201532 75 117 1.0 2.0 0.00 0.00 0.00 45 1016.4
20260506201028 75 83 2.0 2.0 0.00 0.00 0.00 47 1016.3
20260506200524 77 163 1.0 2.0 0.00 0.00 0.00 47 1016.4
20260506200021 76 101 2.0 3.0 0.00 0.00 0.00 47 1016.4
20260506195518 77 96 1.0 2.0 0.00 0.00 0.00 47 1016.6
20260506195014 75 116 1.0 2.0 0.00 0.00 0.00 47 1016.4
20260506194512 74 92 1.0 1.0 0.00 0.00 0.00 49 1016.5
20260506194008 75 45 0.0 1.0 0.00 0.00 0.00 50 1016.5
20260506193506 74 97 1.0 1.0 0.00 0.00 0.00 49 1016.6
20260506193003 72 106 1.0 2.0 0.00 0.00 0.00 51 1016.7
20260506192459 71 94 2.0 3.0 0.00 0.00 0.00 50 1016.5
20260506191955 73 90 2.0 3.0 0.00 0.00 0.00 48 1016.7
20260506191452 73 85 2.0 6.0 0.00 0.00 0.00 52 1016.7
20260506190948 73 96 0.0 0.0 0.00 0.00 0.00 53 1016.9
20260506190446 72 87 1.0 1.0 0.00 0.00 0.00 52 1016.9
20260506185942 71 88 0.0 0.0 0.00 0.00 0.00 51 1016.7
20260506185440 72 160 1.0 1.0 0.00 0.00 0.00 50 1017.2
20260506184937 71 84 1.0 1.0 0.00 0.00 0.00 50 1017.3
20260506184433 70 91 0.0 0.0 0.00 0.00 0.00 55 1017.0
20260506183931 70 103 1.0 2.0 0.00 0.00 0.00 54 1017.3
20260506183426 70 122 0.0 1.0 0.00 0.00 0.00 57 1017.3
20260506182923 69 93 0.0 1.0 0.00 0.00 0.00 56 1017.0
20260506182421 68 88 0.0 1.0 0.00 0.00 0.00 54 1017.1
20260506181918 69 96 0.0 0.0 0.00 0.00 0.00 55 1017.1
20260506181416 69 166 2.0 5.0 0.00 0.00 0.00 54 1017.1
20260506180912 68 84 1.0 1.0 0.00 0.00 0.00 55 1017.3
20260506180408 69 92 0.0 1.0 0.00 0.00 0.00 55 1017.6
20260506175906 68 107 0.0 0.0 0.00 0.00 0.00 57 1017.5
20260506175402 68 82 1.0 1.0 0.00 0.00 0.00 56 1017.3
20260506174859 68 86 1.0 1.0 0.00 0.00 0.00 57 1017.4
20260506174357 66 89 0.0 0.0 0.00 0.00 0.00 59 1017.3
20260506173854 67 103 1.0 2.0 0.00 0.00 0.00 57 1017.6
20260506173350 66 130 1.0 3.0 0.00 0.00 0.00 59 1017.6
20260506172847 66 92 0.0 0.0 0.00 0.00 0.00 60 1017.3
20260506172344 66 119 0.0 1.0 0.00 0.00 0.00 60 1017.4
20260506171842 66 89 0.0 0.0 0.00 0.00 0.00 60 1017.4
20260506171338 65 95 0.0 0.0 0.00 0.00 0.00 60 1017.2
20260506170836 64 85 1.0 2.0 0.00 0.00 0.00 62 1017.4
20260506170332 64 93 0.0 1.0 0.00 0.00 0.00 62 1017.4
20260506165831 64 38 1.0 2.0 0.00 0.00 0.00 60 1017.4
20260506165329 64 83 0.0 1.0 0.00 0.00 0.00 62 1017.5
20260506164825 64 126 2.0 2.0 0.00 0.00 0.00 63 1017.5
20260506164322 63 93 0.0 0.0 0.00 0.00 0.00 64 1017.3
20260506163819 63 96 0.0 1.0 0.00 0.00 0.00 66 1017.3
20260506163314 64 100 0.0 1.0 0.00 0.00 0.00 62 1017.5
20260506162809 63 84 0.0 0.0 0.00 0.00 0.00 64 1017.2
20260506162308 62 99 1.0 1.0 0.00 0.00 0.00 65 1017.4
20260506161805 63 94 1.0 1.0 0.00 0.00 0.00 66 1017.5
20260506161302 62 97 0.0 0.0 0.00 0.00 0.00 68 1017.5
20260506160759 61 100 2.0 3.0 0.00 0.00 0.00 68 1017.3
20260506160256 60 88 1.0 2.0 0.00 0.00 0.00 69 1017.4
20260506155755 60 92 0.0 0.0 0.00 0.00 0.00 70 1017.6
20260506155251 60 103 0.0 0.0 0.00 0.00 0.00 70 1017.4
20260506153404 59 106 1.0 1.0 0.00 0.00 0.00 70 1017.6
20260506152901 59 99 0.0 0.0 0.00 0.00 0.00 71 1017.7
20260506152358 59 95 0.0 0.0 0.00 0.00 0.00 70 1017.4
20260506151857 59 95 0.0 0.0 0.00 0.00 0.00 71 1017.3
20260506151353 59 117 1.0 2.0 0.00 0.00 0.00 71 1017.7
20260506150851 59 95 0.0 0.0 0.00 0.00 0.00 71 1017.5
20260506150347 58 89 0.0 0.0 0.00 0.00 0.00 74 1017.4
20260506145844 59 101 0.0 1.0 0.00 0.00 0.00 72 1017.5
20260506145340 57 97 0.0 1.0 0.00 0.00 0.00 75 1017.5
20260506144838 57 99 1.0 1.0 0.00 0.00 0.00 75 1017.5
20260506144334 55 105 0.0 0.0 0.00 0.00 0.00 79 1017.4
20260506143833 53 95 0.0 0.0 0.00 0.00 0.00 83 1017.6
20260506143329 52 101 0.0 1.0 0.00 0.00 0.00 85 1017.4
20260506142827 52 94 0.0 0.0 0.00 0.00 0.00 85 1017.5
20260506142325 51 95 0.0 0.0 0.00 0.00 0.00 86 1017.5
20260506141823 51 92 0.0 0.0 0.00 0.00 0.00 87 1017.5
20260506141321 51 92 0.0 0.0 0.00 0.00 0.00 87 1017.3
20260506140819 51 92 0.0 0.0 0.00 0.00 0.00 88 1017.2
20260506140315 50 86 0.0 0.0 0.00 0.00 0.00 88 1017.3
20260506135812 50 88 0.0 0.0 0.00 0.00 0.00 88 1017.2
20260506135308 50 85 0.0 0.0 0.00 0.00 0.00 88 1017.1
20260506134805 50 82 0.0 0.0 0.00 0.00 0.00 88 1017.3
20260506134302 49 82 0.0 0.0 0.00 0.00 0.00 88 1016.9
20260506133759 49 88 0.0 0.0 0.00 0.00 0.00 88 1017.1
20260506133256 49 86 0.0 0.0 0.00 0.00 0.00 88 1016.9
20260506132752 49 87 0.0 0.0 0.00 0.00 0.00 88 1017.2
20260506132250 49 88 0.0 0.0 0.00 0.00 0.00 88 1016.7
20260506131748 49 88 0.0 0.0 0.00 0.00 0.00 88 1017.1
20260506131243 49 87 0.0 0.0 0.00 0.00 0.00 89 1016.9
20260506130740 49 88 0.0 0.0 0.00 0.00 0.00 88 1017.1
20260506130237 49 83 0.0 0.0 0.00 0.00 0.00 88 1016.9
20260506125735 50 92 0.0 0.0 0.00 0.00 0.00 88 1016.7
20260506125233 50 89 0.0 0.0 0.00 0.00 0.00 88 1016.7
20260506124731 50 97 0.0 0.0 0.00 0.00 0.00 88 1016.7
20260506124228 50 92 0.0 0.0 0.00 0.00 0.00 88 1016.5
20260506123726 50 86 0.0 0.0 0.00 0.00 0.00 88 1016.7
20260506123224 50 90 0.0 0.0 0.00 0.00 0.00 88 1016.4
20260506122721 50 93 0.0 0.0 0.00 0.00 0.00 88 1016.6
20260506122218 49 85 0.0 0.0 0.00 0.00 0.00 88 1016.5
20260506121716 49 86 0.0 0.0 0.00 0.00 0.00 88 1016.4
20260506121212 50 86 0.0 0.0 0.00 0.00 0.00 88 1016.5
20260506120710 50 83 0.0 0.0 0.00 0.00 0.00 88 1016.3
20260506120207 50 81 0.0 0.0 0.00 0.00 0.00 88 1016.1
20260506115706 50 87 0.0 0.0 0.00 0.00 0.00 88 1016.4
20260506115203 50 81 0.0 0.0 0.00 0.00 0.00 88 1016.4
20260506114700 50 85 0.0 0.0 0.00 0.00 0.00 88 1016.3
20260506114158 50 84 0.0 0.0 0.00 0.00 0.00 88 1016.3
20260506113657 49 85 0.0 0.0 0.00 0.00 0.00 88 1016.5
20260506113154 50 89 0.0 0.0 0.00 0.00 0.00 88 1016.4
20260506112649 50 88 0.0 0.0 0.00 0.00 0.00 87 1016.5
20260506112147 50 101 0.0 0.0 0.00 0.00 0.00 87 1016.3
20260506111645 50 86 0.0 0.0 0.00 0.00 0.00 87 1016.3
20260506111142 50 85 0.0 0.0 0.00 0.00 0.00 87 1016.2
20260506110639 50 85 0.0 1.0 0.00 0.00 0.00 86 1016.3
20260506110137 51 87 0.0 0.0 0.00 0.00 0.00 86 1016.4
20260506105633 51 87 0.0 0.0 0.00 0.00 0.00 85 1016.3
20260506105130 51 83 0.0 0.0 0.00 0.00 0.00 86 1016.1
20260506104629 51 88 0.0 0.0 0.00 0.00 0.00 86 1016.3
20260506104126 51 87 1.0 1.0 0.00 0.00 0.00 86 1016.3
20260506103623 51 89 0.0 0.0 0.00 0.00 0.00 86 1016.2
20260506103120 51 85 0.0 1.0 0.00 0.00 0.00 86 1016.3
20260506102618 51 79 0.0 1.0 0.00 0.00 0.00 86 1016.2
20260506102115 51 87 0.0 1.0 0.00 0.00 0.00 86 1016.4
20260506101612 50 88 0.0 0.0 0.00 0.00 0.00 87 1016.4
20260506101108 50 88 0.0 0.0 0.00 0.00 0.00 87 1016.4
20260506100607 50 88 0.0 0.0 0.00 0.00 0.00 87 1016.3
20260506100104 50 90 0.0 0.0 0.00 0.00 0.00 87 1016.4
20260506095603 50 87 0.0 0.0 0.00 0.00 0.00 87 1016.4
20260506095059 50 85 0.0 0.0 0.00 0.00 0.00 87 1016.3
20260506094557 50 90 0.0 0.0 0.00 0.00 0.00 87 1016.5
20260506094055 50 92 0.0 0.0 0.00 0.00 0.00 87 1016.5
20260506093553 50 90 0.0 0.0 0.00 0.00 0.00 87 1016.6
20260506093050 51 87 0.0 0.0 0.00 0.00 0.00 87 1016.6
20260506092548 51 90 0.0 0.0 0.00 0.00 0.00 87 1016.5
20260506092044 51 90 0.0 0.0 0.00 0.00 0.00 86 1016.6
20260506091543 51 91 0.0 0.0 0.00 0.00 0.00 86 1016.6
20260506091039 51 90 0.0 0.0 0.00 0.00 0.00 85 1016.7
20260506090537 51 90 0.0 0.0 0.00 0.00 0.00 85 1016.8
20260506090033 51 89 0.0 0.0 0.00 0.00 0.00 85 1016.7
20260506085530 51 89 0.0 0.0 0.00 0.00 0.00 86 1016.7
20260506085027 51 89 0.0 0.0 0.00 0.00 0.00 86 1016.8
20260506084524 51 84 0.0 0.0 0.00 0.00 0.00 85 1016.7
20260506084020 51 85 0.0 0.0 0.00 0.00 0.00 85 1016.5
20260506083517 51 82 0.0 0.0 0.00 0.00 0.00 85 1016.8
20260506083015 51 91 0.0 0.0 0.00 0.00 0.00 85 1016.8
20260506082511 51 89 0.0 0.0 0.00 0.00 0.00 85 1016.9
20260506082007 51 87 0.0 0.0 0.00 0.00 0.00 85 1017.1
20260506081505 51 85 0.0 0.0 0.00 0.00 0.00 85 1016.9
20260506081003 51 84 0.0 0.0 0.00 0.00 0.00 85 1016.9
20260506080500 51 90 0.0 0.0 0.00 0.00 0.00 84 1016.9
20260506073443 52 91 0.0 0.0 0.00 0.00 0.00 82 1016.9
20260506072940 52 82 0.0 0.0 0.00 0.00 0.00 82 1016.8
20260506072437 52 91 0.0 0.0 0.00 0.00 0.00 83 1016.9
20260506071936 52 87 0.0 0.0 0.00 0.00 0.00 82 1016.9
20260506071433 52 89 0.0 0.0 0.00 0.00 0.00 82 1016.7
20260506070930 52 87 0.0 0.0 0.00 0.00 0.00 82 1016.8
20260506070427 52 85 0.0 0.0 0.00 0.00 0.00 82 1016.6
20260506062404 53 87 0.0 0.0 0.00 0.00 0.00 79 1016.1
20260506061900 53 87 0.0 0.0 0.00 0.00 0.00 79 1015.9
20260506061357 53 87 0.0 0.0 0.00 0.00 0.00 79 1016.2
20260506060855 53 84 0.0 0.0 0.00 0.00 0.00 79 1016.3
20260506060353 53 85 0.0 0.0 0.00 0.00 0.00 79 1016.2
20260506051324 54 91 0.0 0.0 0.00 0.00 0.00 76 1015.8
20260506050823 54 83 0.0 0.0 0.00 0.00 0.00 76 1015.9
20260506050319 54 87 0.0 0.0 0.00 0.00 0.00 76 1015.6
20260506044810 55 79 0.0 1.0 0.00 0.00 0.00 74 1015.5
20260506044307 55 91 0.0 0.0 0.00 0.00 0.00 74 1015.3
20260506043804 55 91 0.0 1.0 0.00 0.00 0.00 74 1015.4
20260506043302 55 84 0.0 0.0 0.00 0.00 0.00 74 1015.3
20260506042801 55 88 0.0 0.0 0.00 0.00 0.00 74 1015.1
20260506042259 55 85 0.0 0.0 0.00 0.00 0.00 74 1014.9
20260506041757 55 90 0.0 0.0 0.00 0.00 0.00 74 1015.0
20260506041253 55 89 0.0 0.0 0.00 0.00 0.00 74 1014.9
20260506040751 56 87 0.0 0.0 0.00 0.00 0.00 73 1015.1
20260506040248 56 88 0.0 0.0 0.00 0.00 0.00 72 1014.9
20260506035745 56 88 0.0 0.0 0.00 0.00 0.00 72 1014.9
20260506035242 56 88 0.0 0.0 0.00 0.00 0.00 71 1014.8
20260506034738 57 89 0.0 0.0 0.00 0.00 0.00 71 1014.8
20260506034236 57 86 0.0 0.0 0.00 0.00 0.00 70 1014.7
20260506033733 57 86 0.0 0.0 0.00 0.00 0.00 69 1014.5
20260506033230 57 90 0.0 0.0 0.00 0.00 0.00 69 1014.6
20260506032727 57 97 0.0 0.0 0.00 0.00 0.00 68 1014.5
20260506032223 57 91 0.0 0.0 0.00 0.00 0.00 68 1014.5
20260506031720 58 91 0.0 0.0 0.00 0.00 0.00 67 1014.4
20260506031218 58 93 0.0 0.0 0.00 0.00 0.00 66 1014.1
20260506030716 58 88 0.0 0.0 0.00 0.00 0.00 66 1014.3
20260506030213 59 96 0.0 0.0 0.00 0.00 0.00 66 1014.2